Temperature
18 18 18 18 18 18 18 18 18 18 18 18 18 18 17 18 18 18 18 18 18 18 18 17 17 17 17 17 17 16 16 16 16 16 16 16 16 16 16 16 16 15 15
18 18 18 18 18 18 18 18 18 18 18 18 17 17 17 18 18 18 18 18 18 17 17 17 17 17 17 17 17 17 16 16 16 16 16 16 16 16 16 16 15 15 15
18 18 18 18 18 18 18 18 17 17 18 18 17 17 17 18 18 18 18 18 17 17 17 17 17 17 17 17 17 17 16 16 16 16 16 16 16 16 16 16 15 15 15
18 18 18 18 18 18 18 18 18 17 18 17 17 17 17 17 17 17 17 17 17 17 17 17 17 17 17 17 17 17 16 16 16 16 16 16 16 16 16 16 15 15 15
18 18 18 18 18 18 18 18 18 18 18 17 17 17 17 17 17 17 17 17 17 17 17 17 17 17 17 17 17 16 16 16 16 16 16 16 16 16 16 15 15 15 15
18 18 18 18 18 18 18 18 18 18 18 17 17 17 17 17 17 17 17 17 17 17 17 17 17 17 17 17 17 16 16 16 16 16 16 16 16 16 15 15 15 15 15
18 18 18 18 18 18 18 18 18 18 17 17 17 17 17 17 17 17 17 17 17 17 17 17 17 17 17 17 17 16 16 16 16 16 16 16 16 16 15 15 15 15 15
18 18 18 18 18 18 18 18 18 18 17 17 17 17 17 17 18 17 17 17 17 17 17 17 17 17 17 17 17 16 16 16 16 16 16 16 16 16 16 15 15 15 15
18 18 18 18 18 18 18 18 18 18 18 17 17 18 18 18 18 18 18 18 17 17 17 17 17 17 17 17 17 17 16 16 16 16 16 16 16 16 16 15 15 15 15
18 18 18 18 18 18 18 18 18 18 18 17 17 17 18 18 18 18 18 18 18 17 17 17 17 17 17 17 17 17 16 16 16 16 16 16 16 16 16 15 15 15 15
18 18 18 18 18 18 18 18 18 18 17 17 17 17 17 17 17 18 18 18 18 18 18 17 17 17 17 17 17 17 17 16 16 16 16 16 16 16 16 15 15 15 15
18 18 18 18 18 18 18 18 18 18 17 17 17 17 17 17 17 18 18 18 18 18 18 18 18 18 17 17 17 17 17 17 16 16 16 16 16 16 15 15 15 15 15
18 18 18 18 18 18 18 17 17 17 17 17 17 17 17 17 17 17 17 18 18 18 18 18 18 18 17 17 17 17 17 17 17 16 16 16 16 16 15 15 15 15 15
18 18 18 18 18 18 17 17 17 17 17 17 17 17 17 17 17 17 17 17 17 17 18 18 18 18 17 17 17 17 17 17 17 16 16 16 16 16 16 15 15 15 15
18 18 18 17 17 17 17 17 17 17 17 17 17 17 17 17 17 17 17 17 17 17 17 17 17 17 17 17 17 17 17 17 17 16 16 16 16 16 16 16 15 15 15
17 17 17 17 17 17 17 17 17 17 17 17 17 17 17 17 17 17 17 17 17 17 17 17 17 17 17 17 17 17 17 17 17 16 16 16 16 16 16 16 15 15 15
17 17 17 17 17 17 17 17 17 17 17 17 17 17 17 17 17 17 17 17 17 17 16 17 17 17 17 17 17 17 16 16 16 16 16 16 16 16 16 15 15 15 15
17 17 17 17 17 17 17 17 17 17 17 17 17 16 16 16 17 17 17 17 17 16 16 16 16 16 16 16 16 16 16 16 16 16 16 16 16 15 15 15 15 15 15
17 17 17 17 17 17 17 17 17 16 16 16 16 16 16 16 16 16 16 16 16 16 16 16 16 16 16 16 16 16 16 16 15 15 15 15 15 15 15 15 15 15 15
17 17 17 17 17 17 16 16 16 16 16 16 16 16 16 16 16 16 16 16 16 16 16 16 16 16 16 15 15 15 15 15 15 15 15 15 15 15 15 15 15 15 14
17 17 16 16 16 16 16 16 16 16 16 16 16 16 16 16 16 16 16 16 16 16 16 15 15 15 15 15 15 15 15 15 15 14 14 14 14 14 14 14 14 14 14
16 16 16 16 16 16 16 16 16 16 16 16 15 15 15 15 15 15 15 15 15 15 15 15 15 14 14 14 14 14 14 14 14 14 14 14 13 13 13 13 13 13 13
16 16 16 16 16 15 15 15 15 15 15 15 15 15 15 15 15 15 15 15 15 15 14 14 14 14 14 13 13 13 13 13 13 13 13 13 13 13 13 13 12 12 12
16 16 16 15 15 15 15 15 15 15 15 15 15 15 15 14 14 14 14 14 14 14 14 13 13 13 13 13 13 12 12 12 12 12 12 12 12 12 12 12 12 11 11
16 15 15 15 15 15 15 15 15 15 14 14 14 14 14 14 14 14 14 13 13 13 13 12 12 12 12 12 12 12 12 12 11 11 11 11 11 11 11 11 11 11 11
15 15 15 15 14 14 14 14 14 14 14 14 14 13 13 13 13 13 13 13 13 12 12 12 12 11 11 11 11 11 11 11 10 10 10 10 10 10 10 10 10 10 10
Wind_Speed
6 7 7 7 7 6 5 4 4 3 2 2 6 9 9 11 13 13 13 15 14 13 13 12 11 11 10 9 9 9 9 9 8 8 8 8 8 8 8 8 7 7 7
9 7 6 6 6 8 8 6 5 3 2 2 4 8 10 12 12 13 13 14 14 13 13 12 12 11 11 10 9 9 9 9 9 9 8 8 8 8 8 7 8 7 7
13 9 5 5 7 9 8 5 4 3 2 2 3 5 9 11 12 13 13 13 14 14 13 13 13 12 12 11 11 10 10 10 9 9 9 9 9 8 8 8 8 8 8
14 10 6 5 8 9 7 3 3 2 1 2 2 3 5 8 11 12 13 13 13 13 14 14 14 13 13 13 12 12 12 11 11 10 10 10 10 10 9 9 9 9 9
14 10 6 6 9 6 4 4 3 3 2 2 2 2 3 4 6 10 10 13 14 14 15 15 15 15 15 14 14 13 13 13 13 12 11 11 11 11 10 10 10 10 10
14 11 7 7 7 4 4 3 3 3 3 3 2 1 2 3 4 6 8 11 13 15 15 15 15 16 17 16 15 15 14 14 14 13 13 12 12 12 12 12 11 11 11
13 10 6 5 5 5 6 6 3 3 2 2 2 1 2 1 3 4 5 6 9 13 15 16 16 15 15 17 17 17 16 16 15 15 14 14 14 13 13 13 13 13 13
13 11 7 6 6 5 5 5 4 3 2 3 3 2 1 3 3 3 4 5 7 9 11 15 16 16 16 15 17 18 18 17 16 16 16 15 15 15 14 14 14 14 13
12 11 10 7 6 6 6 6 6 6 4 2 3 4 3 4 3 3 3 4 5 5 7 11 15 17 17 16 17 19 20 19 18 17 17 17 17 16 15 15 14 14 14
11 11 10 9 7 6 7 7 6 5 5 3 2 2 3 4 3 2 3 3 5 6 6 7 10 14 17 17 17 19 21 22 21 19 18 18 17 17 16 16 15 15 15
9 10 10 8 7 6 7 7 6 6 5 5 4 3 2 1 2 3 3 3 3 4 5 6 7 10 15 17 17 19 21 22 22 21 20 19 18 17 17 16 16 15 15
6 8 10 8 8 7 7 7 7 8 6 6 5 4 4 3 4 3 4 4 4 4 4 4 5 8 11 14 16 18 20 21 22 22 21 20 19 19 18 17 16 16 15
6 9 9 8 7 7 8 7 7 7 7 7 7 5 5 5 4 4 4 3 3 3 3 3 5 8 10 12 15 18 19 21 21 21 21 21 21 20 19 18 18 17 17
8 8 8 8 8 8 8 7 6 7 7 7 8 7 5 5 5 5 4 4 2 3 3 4 3 5 9 11 15 18 17 20 21 21 21 21 20 20 19 19 18 18 18
7 8 9 8 8 8 8 7 6 7 7 7 7 7 6 5 4 4 4 5 5 3 4 4 3 3 5 8 12 13 14 17 20 21 21 21 21 20 20 19 19 19 18
8 8 9 9 9 8 8 8 7 7 7 7 6 6 6 4 4 4 4 4 4 5 5 4 4 3 3 5 8 10 13 15 17 19 20 21 21 20 20 20 20 19 19
8 9 9 8 8 8 8 8 8 7 8 7 6 6 7 6 4 4 3 3 3 4 5 4 3 2 2 2 2 5 7 9 11 16 18 19 20 20 20 20 20 20 20
7 7 7 8 7 7 7 8 8 8 7 7 7 7 7 6 6 5 4 4 3 4 4 5 3 2 2 2 1 2 3 5 7 10 14 16 18 19 19 20 19 19 19
5 5 6 6 6 6 6 6 7 7 7 7 7 7 7 6 6 5 4 4 4 4 3 3 3 2 1 1 0 1 1 1 3 4 6 10 12 14 15 16 17 18 18
4 4 4 5 4 4 5 5 6 6 6 6 6 6 7 7 7 6 5 5 4 3 2 2 2 1 1 1 0 0 1 1 2 3 3 3 4 6 8 10 12 13 14
4 3 3 3 3 3 3 4 4 5 5 4 4 4 5 5 6 5 4 3 3 3 2 2 1 0 0 1 1 1 1 2 2 1 2 2 2 3 4 5 7 8 9
4 3 3 3 2 1 2 3 3 3 3 2 2 1 2 2 3 4 4 4 4 4 3 2 2 1 1 1 1 1 1 1 2 2 1 2 1 2 3 3 4 4 5
4 4 4 3 3 2 3 3 3 2 2 2 1 1 1 0 2 3 4 5 4 3 3 3 3 1 1 1 0 1 1 1 2 2 1 2 2 2 4 5 5 4 5
5 4 4 4 4 4 4 4 4 3 3 3 2 1 2 2 2 4 4 5 4 4 3 3 3 1 1 1 0 0 1 1 1 2 2 1 3 2 3 5 7 7 8
6 6 5 5 5 4 6 6 5 4 5 5 4 4 3 3 4 5 6 6 5 4 6 8 6 6 6 5 4 3 3 2 2 2 2 1 2 3 2 2 5 7 8
7 7 7 6 5 5 7 7 6 4 5 5 5 6 8 7 7 6 5 6 6 3 4 5 6 7 7 8 8 4 2 1 1 2 3 2 2 2 3 3 3 6 7
Wind_Direction
161 166 169 175 182 182 181 189 213 237 241 191 149 147 147 151 156 158 164 168 168 168 168 169 170 170 170 171 172 171 169 167 168 168 169 168 168 168 166 165 165 164 161
170 171 174 182 193 195 192 188 193 190 179 153 145 152 151 152 160 164 168 174 178 179 179 180 181 182 182 184 184 185 181 180 179 181 183 183 181 182 181 182 181 179 178
174 175 173 183 196 195 187 177 174 158 143 138 142 153 155 160 167 172 175 180 184 188 189 191 192 193 194 195 196 196 195 195 194 194 196 196 196 196 197 198 196 196 196
175 173 171 182 185 176 168 157 154 142 140 143 151 162 162 167 173 179 182 187 189 193 199 202 202 202 204 204 205 205 205 204 204 205 206 207 208 207 208 209 209 209 210
174 170 174 181 176 168 164 174 158 151 156 165 176 170 174 176 180 185 191 196 199 201 203 208 210 211 212 214 214 213 212 211 212 213 214 215 216 216 216 218 219 221 222
175 172 176 180 172 159 167 169 159 153 156 166 167 159 202 201 190 191 198 201 206 208 209 209 212 216 219 220 220 220 219 219 218 218 220 221 222 222 223 225 227 229 229
176 172 175 173 169 171 178 171 154 154 166 142 99 24 341 286 218 207 205 200 207 211 210 212 214 216 221 225 225 226 226 224 223 223 225 226 226 226 227 229 231 233 234
178 179 172 177 175 172 175 172 156 153 178 159 143 120 352 332 308 235 213 208 212 211 212 216 218 218 219 221 225 227 229 229 226 226 228 228 229 229 229 231 232 233 235
183 183 181 176 178 177 182 184 171 163 178 199 167 150 158 217 271 295 242 219 210 211 216 216 218 220 219 221 223 227 229 230 230 230 230 230 229 229 230 232 233 234 235
186 187 184 179 182 184 185 190 184 172 164 186 205 201 181 164 170 267 300 258 227 220 218 221 222 221 220 220 224 228 230 231 231 232 231 229 229 230 231 232 234 235 236
193 190 188 185 188 191 193 193 184 180 176 181 186 187 185 178 167 169 243 280 280 244 223 221 222 222 221 220 222 228 230 229 230 231 233 232 231 230 231 233 235 237 238
198 197 196 192 193 194 197 197 192 187 191 189 190 186 179 181 196 185 210 239 253 262 240 228 225 224 221 220 223 229 230 228 228 229 231 231 231 231 231 232 235 238 239
204 205 203 198 199 200 197 194 196 200 197 195 201 205 203 209 188 182 190 220 243 268 271 249 233 229 226 220 222 227 229 228 228 230 231 231 232 232 232 232 234 237 239
207 202 202 202 201 199 203 198 203 207 202 205 212 207 209 216 203 191 185 183 226 277 278 265 265 234 231 221 223 223 226 226 227 229 231 233 233 233 233 234 236 238 240
206 202 201 202 204 205 206 200 210 212 205 209 214 211 214 220 212 210 200 185 184 224 257 260 261 256 236 226 226 223 223 225 226 229 231 232 233 234 235 236 238 239 240
204 200 203 203 206 208 209 207 212 214 210 215 215 210 217 222 220 216 209 200 191 197 231 244 241 251 250 239 228 219 223 228 229 231 232 233 235 236 237 238 239 240 241
199 202 203 201 205 210 211 211 216 212 213 218 220 218 225 220 222 226 215 204 203 190 222 257 250 257 249 258 251 233 235 233 238 237 236 238 238 240 241 242 242 242 242
197 196 197 197 202 204 203 204 210 209 208 212 218 218 227 222 221 223 215 216 217 208 206 240 259 256 250 254 244 242 248 242 243 248 245 243 244 245 245 246 248 247 247
181 182 182 189 198 203 204 206 204 206 210 214 216 215 221 216 225 224 214 217 221 222 202 211 245 250 265 290 333 302 280 293 273 277 265 258 258 258 257 256 254 253 252
164 172 177 183 191 195 201 200 199 206 213 218 222 220 219 215 218 216 217 219 212 201 196 203 228 269 298 317 52 313 324 324 305 318 314 301 287 285 279 267 258 254 254
147 152 156 162 171 187 209 198 197 201 205 213 223 224 221 207 200 198 204 206 195 187 182 184 196 161 329 7 318 287 277 294 299 314 322 315 303 296 292 277 265 261 257
124 123 133 133 135 185 164 163 168 171 173 182 206 230 225 203 181 160 153 145 149 169 183 180 176 179 241 258 290 315 320 342 312 323 337 313 318 316 310 310 305 291 282
114 113 117 115 103 71 83 98 115 123 117 138 161 176 192 148 142 133 107 95 89 100 138 159 152 182 225 277 314 335 319 259 263 293 335 314 338 329 342 360 8 352 331
112 107 101 98 92 69 70 90 105 103 92 81 77 104 125 84 102 122 114 98 81 66 79 102 117 110 88 52 99 261 267 288 302 340 24 336 338 331 348 9 16 13 5
100 94 88 86 84 64 62 78 92 94 84 68 59 60 84 88 82 107 113 106 87 64 63 76 82 72 58 50 64 63 37 31 346 341 2 20 328 319 321 330 359 358 353
101 94 80 70 73 67 63 74 84 94 90 76 61 54 59 72 76 86 103 105 96 72 65 62 56 45 40 38 43 56 63 51 10 341 338 5 338 350 338 326 339 348 349
Height
1568 1570 1571 1573 1575 1576 1577 1579 1580 1581 1582 1583 1583 1584 1585 1586 1586 1587 1587 1587 1588 1588 1588 1589 1589 1590 1590 1591 1591 1592 1592 1592 1593 1593 1594 1594 1594 1595 1595 1596 1596 1596 1596
1568 1570 1572 1573 1575 1576 1578 1579 1580 1581 1582 1583 1584 1585 1585 1586 1586 1587 1587 1588 1588 1588 1589 1589 1589 1590 1590 1591 1591 1592 1592 1592 1593 1593 1594 1594 1594 1595 1595 1596 1596 1596 1597
1568 1570 1572 1573 1574 1576 1578 1579 1580 1581 1583 1583 1584 1585 1585 1586 1586 1587 1588 1588 1588 1588 1589 1589 1589 1590 1590 1590 1591 1591 1592 1592 1592 1593 1593 1594 1594 1594 1595 1595 1595 1596 1596
1567 1569 1571 1572 1574 1575 1577 1578 1580 1581 1582 1583 1584 1585 1585 1586 1586 1587 1587 1588 1588 1588 1588 1589 1589 1589 1589 1590 1590 1591 1591 1591 1592 1592 1592 1593 1593 1593 1594 1594 1595 1595 1595
1566 1568 1570 1572 1573 1574 1576 1578 1579 1580 1581 1583 1584 1584 1585 1585 1585 1586 1587 1587 1588 1588 1588 1588 1588 1588 1589 1589 1589 1589 1590 1590 1591 1591 1591 1591 1592 1592 1592 1593 1593 1594 1594
1565 1567 1569 1571 1572 1574 1575 1576 1578 1579 1581 1582 1583 1584 1584 1585 1585 1585 1586 1586 1587 1587 1587 1588 1588 1588 1588 1588 1588 1588 1588 1588 1589 1589 1590 1590 1590 1590 1591 1591 1591 1592 1592
1563 1565 1567 1569 1571 1572 1574 1575 1577 1578 1579 1580 1581 1582 1583 1583 1583 1584 1584 1585 1585 1586 1586 1586 1586 1586 1586 1587 1587 1587 1587 1587 1587 1587 1587 1588 1588 1588 1589 1589 1589 1590 1590
1560 1562 1565 1567 1569 1570 1572 1573 1575 1576 1577 1578 1580 1580 1581 1582 1582 1582 1582 1583 1583 1584 1584 1584 1585 1585 1585 1585 1585 1585 1585 1585 1585 1585 1585 1585 1586 1586 1586 1587 1587 1587 1588
1558 1560 1562 1564 1566 1568 1569 1571 1573 1574 1575 1577 1578 1579 1579 1578 1579 1580 1580 1581 1581 1581 1582 1582 1582 1583 1583 1583 1583 1583 1583 1583 1583 1583 1583 1583 1583 1584 1584 1584 1584 1584 1585
1555 1557 1559 1561 1563 1565 1567 1569 1570 1571 1573 1574 1575 1576 1577 1577 1578 1577 1578 1579 1579 1579 1579 1579 1580 1580 1580 1580 1581 1581 1580 1580 1580 1580 1580 1581 1581 1581 1581 1581 1582 1582 1582
1552 1554 1557 1558 1560 1562 1564 1565 1567 1568 1570 1571 1572 1573 1574 1575 1575 1575 1575 1576 1576 1576 1576 1576 1577 1577 1577 1577 1577 1578 1578 1578 1578 1578 1578 1578 1578 1579 1579 1579 1579 1579 1579
1548 1551 1553 1555 1557 1558 1560 1562 1564 1565 1567 1568 1569 1570 1571 1572 1572 1573 1572 1572 1573 1573 1573 1573 1573 1574 1574 1574 1574 1574 1575 1575 1575 1575 1575 1575 1575 1575 1576 1576 1576 1576 1576
1544 1546 1549 1551 1553 1555 1557 1559 1560 1561 1563 1564 1565 1567 1568 1569 1569 1570 1570 1570 1570 1570 1570 1570 1570 1570 1570 1570 1570 1571 1571 1572 1572 1572 1572 1572 1572 1572 1572 1572 1572 1572 1572
1540 1542 1544 1547 1549 1551 1553 1555 1556 1557 1559 1560 1561 1563 1564 1565 1566 1566 1567 1567 1567 1567 1566 1566 1567 1567 1567 1567 1567 1568 1568 1568 1568 1568 1568 1568 1568 1569 1569 1569 1569 1568 1568
1536 1538 1540 1543 1545 1547 1548 1550 1551 1553 1554 1555 1557 1558 1559 1560 1561 1562 1563 1564 1565 1563 1562 1562 1563 1563 1563 1563 1563 1564 1564 1564 1564 1564 1564 1564 1564 1565 1565 1565 1565 1564 1564
1531 1533 1536 1538 1540 1542 1543 1545 1546 1548 1550 1551 1552 1554 1555 1556 1557 1558 1559 1559 1560 1560 1559 1559 1559 1559 1559 1559 1559 1559 1560 1560 1560 1560 1560 1560 1560 1560 1560 1560 1560 1560 1560
1527 1529 1531 1533 1535 1537 1538 1539 1541 1543 1544 1546 1547 1548 1550 1551 1552 1553 1554 1555 1555 1555 1555 1555 1555 1555 1556 1556 1556 1556 1556 1556 1556 1556 1556 1556 1556 1556 1556 1556 1556 1556 1555
1523 1525 1527 1529 1531 1532 1533 1534 1536 1537 1539 1540 1541 1543 1545 1547 1547 1549 1549 1550 1550 1551 1551 1550 1551 1551 1551 1552 1552 1552 1552 1552 1552 1552 1552 1551 1551 1551 1551 1551 1551 1551 1550
1520 1522 1523 1525 1526 1528 1529 1531 1532 1533 1535 1536 1537 1538 1540 1541 1542 1544 1544 1545 1545 1546 1546 1546 1546 1547 1547 1547 1547 1547 1548 1547 1547 1547 1547 1546 1546 1546 1546 1545 1545 1545 1545
1517 1518 1520 1522 1523 1525 1526 1527 1528 1529 1530 1531 1532 1534 1535 1536 1537 1539 1539 1540 1541 1541 1542 1542 1542 1542 1542 1542 1543 1543 1543 1543 1543 1542 1542 1541 1541 1541 1540 1540 1539 1539 1539
1514 1516 1518 1519 1520 1521 1522 1523 1525 1525 1526 1527 1528 1530 1530 1532 1533 1534 1535 1535 1536 1537 1537 1538 1538 1538 1538 1539 1539 1538 1538 1538 1538 1537 1537 1537 1536 1535 1535 1534 1534 1534 1533
1513 1514 1516 1517 1518 1519 1520 1521 1522 1522 1523 1524 1525 1525 1526 1527 1528 1529 1530 1531 1532 1533 1533 1534 1534 1534 1534 1535 1535 1535 1534 1534 1533 1534 1533 1532 1532 1531 1530 1529 1529 1528 1527
1512 1513 1514 1515 1516 1517 1518 1519 1519 1520 1520 1521 1521 1522 1523 1524 1525 1526 1527 1527 1528 1529 1530 1531 1530 1530 1531 1531 1532 1531 1531 1531 1530 1529 1529 1528 1528 1527 1526 1525 1524 1524 1523
1511 1513 1514 1514 1515 1516 1517 1517 1518 1518 1518 1519 1519 1520 1521 1521 1522 1523 1523 1524 1525 1526 1527 1527 1528 1528 1529 1529 1529 1529 1528 1528 1527 1527 1526 1525 1524 1523 1523 1522 1520 1519 1518
1511 1512 1513 1514 1515 1515 1516 1517 1517 1517 1517 1517 1518 1518 1519 1520 1520 1521 1521 1522 1523 1524 1525 1526 1526 1527 1527 1527 1527 1526 1525 1525 1524 1524 1523 1522 1521 1520 1519 1518 1517 1516 1514
1511 1512 1513 1514 1515 1515 1516 1516 1517 1516 1516 1516 1517 1517 1518 1518 1519 1519 1520 1521 1521 1522 1524 1524 1525 1525 1526 1526 1525 1524 1524 1523 1522 1522 1521 1520 1519 1517 1516 1515 1514 1513 1511